Погода в Пайгарме

Россия / Республика Мордовия     54°04′58″N   44°50′20″E
темп.,
°C
ветер,
м/с
пор.,
м/с
влажн.,
%
обл.,
%
осадки,
мм/ч
давл.,
гПа
погр.,
м
20 сентября, пн
пн2000:00+7вюв5952100 0.0 1023447
03:00+6вюв61156100 0.2 1023446
06:00+6в71362100 0.2 1022440
09:00+6вюв71367100 0.6 1023521
12:00+9вюв71152100 0.2 10221193
15:00+10вюв61149100 0.4 10211136
18:00+9вюв61253100 0.6 10211075
21:00+9вюв61252100 0.8 10211054
21 сентября, вт
вт2100:00+8вюв61267100 0.6 1020823
03:00+6вюв71482100 2.4 1019630
06:00+6вюв71385100 1.3 1018622
09:00+7вюв61288100 2.3 1018587
12:00+9вюв7982100 0.3 1017645
15:00+11вюв7973100 0.4 1016703
18:00+10в71373100 0.1 1015469
21:00+7в71384100 1.5 1014387
22 сентября, ср
ср2200:00+7вюв61492100 4.9 1012474
03:00+8вюв61196100 11.2 1012384
06:00+8вюв5997100 1.7 1011315
09:00+8вюв4795100 2.4 1012231
12:00+8вюв4797100 2.1 1012282
15:00+12юв4687100 2.3 1012468
18:00+11юв349251 0.3 101376
21:00+7ю49932 0.3 1015240
23 сентября, чт
чт2300:00+6ю37945 0.0 1016163
03:00+5ю349140 0.0 101766
06:00+6юв3386100 0.0 101759
09:00+9вюв247332 0.0 1017193
12:00+13вюв566094 0.0 1016670
15:00+9в4887100 0.3 1016333
18:00+10юв51195100 0.1 1015568
21:00+10юв51292100 0.2 1014541
24 сентября, пт
пт2400:00+9ююв61391100 0.4 1013482
03:00+8ююв51088100 2.4 1013428
06:00+8ююв3695100 2.7 1012217
09:00+8ююв2397100 6.2 1012142
12:00+8юв5993100 2.4 1010478
15:00+8ююв41096100 4.7 1009660
18:00+8ююв61193100 2.1 1008614
21:00+8ю4893100 3.1 1007383